Clinton, IA

8:00 AM CDT on June 24, 2017 (GMT -0500)
Clinton Municipal

Weather History for KCWI - March, 2013

Change the Weather History Date:

Sunday, March 17, 2013

  Actual Average Record
Temperature  
Mean Temperature 28 °F -  
Max Temperature 33 °F 46 °F 82 °F (2012)
Min Temperature 24 °F 27 °F 9 °F (1959)
Degree Days  
Heating Degree Days 36    
Moisture  
Dew Point 20 °F    
Average Humidity 66    
Maximum Humidity 80    
Minimum Humidity 55    
Precipitation  
Precipitation 0.00 in - - ()
Sea Level Pressure  
Sea Level Pressure 30.12 in    
Wind  
Wind Speed 14 mph (ENE)    
Max Wind Speed 18 mph    
Max Gust Speed 22 mph    
Visibility 10 miles    
Events      
Averages and records for this station are not official NWS values.
T = Trace of Precipitation, MM = Missing Value Source: NWS Daily Summary

Daily Weather History Graph

Daily Weather History Graph

Search for Another Location

Airport or City:

Trip Planner

Search our weather history database for the weather conditions in past years. The results will help you decide how hot, cold, wet, or windy it might be!

Date:

Astronomy

Mar. 17, 2013 Rise Set
Actual Time 7:09 AM CDT 7:10 PM CDT
Civil Twilight 6:41 AM CDT 7:38 PM CDT
Nautical Twilight 6:09 AM CDT 8:10 PM CDT
Astronomical Twilight 5:36 AM CDT 8:43 PM CDT
Moon 10:17 AM CDT (3/17) 12:23 AM CDT (3/17)
Length of Visible Light 12h 56m
Length of Day
12h 01m
Waxing Crescent, 31% of the Moon is Illuminated
Mar 17
Waxing Crescent
Mar 19
First Quarter
Mar 27
Full
Apr 2
Last Quarter
Apr 10
New

Hourly Weather History & Observations

Time (CDT) Temp. Windchill Dew Point Humidity Pressure Visibility Wind Dir Wind Speed Gust Speed Precip Events Conditions
12:15 AM 30.2 °F 19.3 °F 21.2 °F 69% 30.17 in 10.0 mi North 15.0 mph - N/A   Overcast
12:35 AM 28.4 °F 17.5 °F 21.2 °F 74% 30.17 in 10.0 mi North 13.8 mph - N/A   Scattered Clouds
12:55 AM 28.4 °F 17.0 °F 19.4 °F 69% 30.17 in 10.0 mi North 15.0 mph - N/A   Clear
1:15 AM 28.4 °F 18.0 °F 21.2 °F 74% 30.17 in 10.0 mi NNW 12.7 mph - N/A   Scattered Clouds
1:35 AM 28.4 °F 17.5 °F 19.4 °F 69% 30.18 in 10.0 mi North 13.8 mph - N/A   Mostly Cloudy
1:55 AM 28.4 °F 18.0 °F 19.4 °F 69% 30.17 in 10.0 mi North 12.7 mph - N/A   Mostly Cloudy
2:15 AM 28.4 °F 18.0 °F 19.4 °F 69% 30.17 in 10.0 mi North 12.7 mph - N/A   Partly Cloudy
2:35 AM 28.4 °F 18.0 °F 19.4 °F 69% 30.17 in 10.0 mi North 12.7 mph - N/A   Partly Cloudy
2:55 AM 26.6 °F 15.7 °F 19.4 °F 74% 30.16 in 10.0 mi North 12.7 mph - N/A   Clear
3:15 AM 26.6 °F 15.7 °F 17.6 °F 69% 30.16 in 10.0 mi NNE 12.7 mph - N/A   Clear
3:35 AM 26.6 °F 15.7 °F 17.6 °F 69% 30.15 in 10.0 mi North 12.7 mph - N/A   Clear
3:55 AM 26.6 °F 16.2 °F 17.6 °F 69% 30.15 in 10.0 mi North 11.5 mph 19.6 mph N/A   Clear
4:15 AM 26.6 °F 14.7 °F 17.6 °F 69% 30.15 in 10.0 mi NNE 15.0 mph - N/A   Clear
4:35 AM 26.6 °F 15.7 °F 17.6 °F 69% 30.15 in 10.0 mi NNE 12.7 mph - N/A   Clear
4:55 AM 26.6 °F 15.2 °F 15.8 °F 64% 30.15 in 10.0 mi NNE 13.8 mph 18.4 mph N/A   Clear
5:15 AM 26.6 °F 15.2 °F 17.6 °F 69% 30.16 in 10.0 mi NE 13.8 mph - N/A   Partly Cloudy
5:35 AM 24.8 °F 13.4 °F 15.8 °F 69% 30.18 in 10.0 mi NE 12.7 mph - N/A   Clear
5:55 AM 24.8 °F 11.9 °F 15.8 °F 69% 30.18 in 10.0 mi NE 16.1 mph - N/A   Clear
6:15 AM 24.8 °F 12.9 °F 15.8 °F 69% 30.19 in 10.0 mi NE 13.8 mph - N/A   Clear
6:35 AM 24.8 °F 13.4 °F 12.2 °F 59% 30.19 in 10.0 mi NE 12.7 mph - N/A   Clear
6:55 AM 24.8 °F 12.4 °F 14.0 °F 64% 30.19 in 10.0 mi ENE 15.0 mph - N/A   Clear
7:15 AM 24.8 °F 14.0 °F 14.0 °F 64% 30.19 in 10.0 mi ENE 11.5 mph - N/A   Clear
7:35 AM 24.8 °F 13.4 °F 14.0 °F 64% 30.19 in 10.0 mi ENE 12.7 mph - N/A   Clear
7:55 AM 24.8 °F 14.6 °F 12.2 °F 59% 30.20 in 10.0 mi ENE 10.4 mph - N/A   Clear
8:15 AM 24.8 °F 12.9 °F 14.0 °F 64% 30.20 in 10.0 mi ENE 13.8 mph - N/A   Clear
8:35 AM 24.8 °F 12.4 °F 14.0 °F 64% 30.21 in 10.0 mi East 15.0 mph 18.4 mph N/A   Clear
8:55 AM 26.6 °F 15.7 °F 14.0 °F 59% 30.22 in 10.0 mi ENE 12.7 mph - N/A   Clear
9:15 AM 26.6 °F 15.2 °F 14.0 °F 59% 30.22 in 10.0 mi East 13.8 mph - N/A   Clear
9:35 AM 26.6 °F 14.7 °F 15.8 °F 64% 30.22 in 10.0 mi East 15.0 mph - N/A   Clear
9:55 AM 26.6 °F 16.2 °F 15.8 °F 64% 30.22 in 10.0 mi East 11.5 mph - N/A   Clear
10:15 AM 28.4 °F 17.5 °F 15.8 °F 59% 30.22 in 10.0 mi East 13.8 mph 18.4 mph N/A   Clear
10:35 AM 28.4 °F 16.6 °F 15.8 °F 59% 30.21 in 10.0 mi East 16.1 mph - N/A   Clear
10:55 AM 30.2 °F 20.2 °F 15.8 °F 55% 30.21 in 10.0 mi ESE 12.7 mph 17.3 mph N/A   Clear
11:15 AM 30.2 °F 20.2 °F 17.6 °F 60% 30.20 in 10.0 mi East 12.7 mph - N/A   Clear
11:35 AM 30.2 °F 19.8 °F 17.6 °F 60% 30.20 in 10.0 mi ESE 13.8 mph - N/A   Clear
11:55 AM 33.8 °F 23.9 °F 19.4 °F 56% 30.19 in 10.0 mi East 15.0 mph 18.4 mph N/A   Clear
12:15 PM 33.8 °F 23.9 °F 19.4 °F 56% 30.19 in 10.0 mi SE 15.0 mph - N/A   Partly Cloudy
12:35 PM 33.8 °F 23.2 °F 21.2 °F 60% 30.17 in 10.0 mi East 17.3 mph - N/A   Mostly Cloudy
12:55 PM 32.0 °F 21.6 °F 19.4 °F 60% 30.16 in 10.0 mi ESE 15.0 mph - N/A   Partly Cloudy
1:15 PM 33.8 °F 23.9 °F 23.0 °F 65% 30.15 in 10.0 mi East 15.0 mph 20.7 mph N/A   Mostly Cloudy
1:35 PM 33.8 °F 23.5 °F 21.2 °F 60% 30.14 in 10.0 mi East 16.1 mph 21.9 mph N/A   Overcast
1:55 PM 33.8 °F 22.8 °F 21.2 °F 60% 30.13 in 10.0 mi ESE 18.4 mph - N/A   Overcast
2:15 PM 33.8 °F 23.5 °F 21.2 °F 60% 30.13 in 10.0 mi ESE 16.1 mph - N/A   Overcast
2:35 PM 33.8 °F 23.2 °F 21.2 °F 60% 30.12 in 10.0 mi East 17.3 mph - N/A   Overcast
2:55 PM 33.8 °F 23.5 °F 21.2 °F 60% 30.11 in 10.0 mi East 16.1 mph - N/A   Overcast
3:15 PM 32.0 °F 22.5 °F 21.2 °F 64% 30.10 in 10.0 mi East 12.7 mph - N/A   Overcast
3:35 PM 33.8 °F 23.9 °F 21.2 °F 60% 30.09 in 10.0 mi East 15.0 mph 20.7 mph N/A   Overcast
3:55 PM 33.8 °F 23.5 °F 21.2 °F 60% 30.08 in 10.0 mi East 16.1 mph 20.7 mph N/A   Overcast
4:15 PM 33.8 °F 23.9 °F 23.0 °F 65% 30.07 in 10.0 mi East 15.0 mph - N/A   Overcast
4:35 PM 33.8 °F 23.9 °F 23.0 °F 65% 30.07 in 10.0 mi East 15.0 mph 19.6 mph N/A   Overcast
4:55 PM 33.8 °F 23.5 °F 23.0 °F 65% 30.06 in 10.0 mi ESE 16.1 mph 21.9 mph N/A   Overcast
5:15 PM 33.8 °F 23.9 °F 23.0 °F 65% 30.06 in 10.0 mi East 15.0 mph - N/A   Overcast
5:35 PM 33.8 °F 23.5 °F 23.0 °F 65% 30.06 in 10.0 mi East 16.1 mph - N/A   Overcast
5:55 PM 33.8 °F 23.9 °F 23.0 °F 65% 30.04 in 10.0 mi East 15.0 mph 20.7 mph N/A   Overcast
6:15 PM 33.8 °F 23.2 °F 23.0 °F 65% 30.04 in 10.0 mi East 17.3 mph - N/A   Overcast
6:35 PM 32.0 °F 22.5 °F 23.0 °F 69% 30.03 in 10.0 mi East 12.7 mph - N/A   Overcast
6:55 PM 32.0 °F 21.6 °F 23.0 °F 69% 30.02 in 10.0 mi East 15.0 mph - N/A   Mostly Cloudy
7:15 PM 32.0 °F 21.6 °F 23.0 °F 69% 30.02 in 10.0 mi East 15.0 mph - N/A   Overcast
7:35 PM 30.2 °F 19.8 °F 21.2 °F 69% 30.03 in 10.0 mi East 13.8 mph - N/A   Mostly Cloudy
7:55 PM 30.2 °F 20.2 °F 21.2 °F 69% 30.03 in 10.0 mi East 12.7 mph - N/A   Partly Cloudy
8:15 PM 30.2 °F 18.5 °F 21.2 °F 69% 30.01 in 10.0 mi East 17.3 mph - N/A   Clear
8:35 PM 30.2 °F 19.3 °F 21.2 °F 69% 30.01 in 10.0 mi East 15.0 mph - N/A   Clear
8:55 PM 30.2 °F 20.2 °F 23.0 °F 75% 30.01 in 10.0 mi East 12.7 mph - N/A   Partly Cloudy
9:15 PM 30.2 °F 20.2 °F 23.0 °F 75% 30.00 in 10.0 mi East 12.7 mph - N/A   Mostly Cloudy
9:35 PM 30.2 °F 19.8 °F 24.8 °F 80% 30.00 in 10.0 mi East 13.8 mph - N/A   Scattered Clouds
9:55 PM 30.2 °F 18.9 °F 24.8 °F 80% 30.00 in 10.0 mi ESE 16.1 mph 20.7 mph N/A   Clear
10:15 PM 30.2 °F 19.3 °F 24.8 °F 80% 29.99 in 10.0 mi ESE 15.0 mph - N/A   Clear
10:35 PM 30.2 °F 19.3 °F 23.0 °F 75% 29.98 in 10.0 mi ESE 15.0 mph - N/A   Clear
10:55 PM 30.2 °F 18.9 °F 24.8 °F 80% 29.98 in 10.0 mi ESE 16.1 mph 19.6 mph N/A   Clear
11:15 PM 30.2 °F 19.8 °F 23.0 °F 75% 29.97 in 10.0 mi ESE 13.8 mph - N/A   Clear
11:35 PM 30.2 °F 20.2 °F 23.0 °F 75% 29.96 in 10.0 mi East 12.7 mph - N/A   Clear
11:55 PM 30.2 °F 20.8 °F 23.0 °F 75% 29.95 in 10.0 mi East 11.5 mph - N/A   Scattered Clouds